Lexington Weather

Lexington, Massachusetts, USA

36°F
1/28/2020 5:48am 
  • Lexington Conditions: Overcast
  • Temperature: 36.3°F / 2.4°CWarmer 0.3°F than last hour.
  • Dew Point: 29.8°FIncreased 0.3°Fsince last hour.
  • Relative Humidity: 77
  • Wind: Wind from NW NW Calm, 10-min avg: 2 mph, gust: 5 mph
  • Barometer: 29.64 in Steady
  • Visibility: 10 miles
  • Rain Today: 0.00 in
  •   

Regional Weather Roundup
for Boston / Norton, MA

        
000
ASUS41 KBOX 251710
RWRBOX

REGIONAL WEATHER ROUNDUP
NATIONAL WEATHER SERVICE BOSTON/NORTON MA
1200 PM EST SAT JAN 25 2020

NOTE:  "FAIR" INDICATES FEW OR NO CLOUDS BELOW 12,000 FEET WITH NO 
SIGNIFICANT WEATHER AND/OR OBSTRUCTIONS TO VISIBILITY.

MAZALL-251800-
EASTERN MASSACHUSETTS
  
CITY           SKY/WX    TMP DP  RH WIND       PRES   REMARKS
BOSTON         CLOUDY    44  38  79 E14       30.20                   
BEVERLY        CLOUDY    42  36  79 E6        30.21F                  
LAWRENCE       CLOUDY    38  34  85 NE9       30.22F FOG     WCI  31  
BEDFORD        CLOUDY    41  37  86 NE9       30.19F FOG              
BLUE HILL      NOT AVBL                                               
NORWOOD        CLOUDY    46  38  73 E9        30.17F                  
MARSHFIELD     CLOUDY    45  41  87 VRB7      30.18F                  
PLYMOUTH       CLOUDY    44  40  85 E12G21    30.16F                  
TAUNTON        CLOUDY    44  39  82 E13       30.14F                  
NEW BEDFORD    PTSUNNY   46  39  76 E14       30.12F                  
$$

MAZALL-251800-
CAPE COD AND THE ISLANDS
  
CITY           SKY/WX    TMP DP  RH WIND       PRES   REMARKS
FALMOUTH       CLOUDY    48  41  76 E12G23    30.15F                  
HYANNIS        PTSUNNY   49  41  74 E15G21    30.13F                  
CHATHAM        CLOUDY    46  42  86 E13       30.17F                  
PROVINCETOWN   CLOUDY    46  42  86 E15G21    30.19F                  
NANTUCKET      CLOUDY    48  43  82 E17       30.13F                  
MARTHAS VNYRD  CLOUDY    45  40  82 E17       30.12F                  
$$
 
MAZALL-251800-
CENTRAL AND WESTERN MASSACHUSETTS
  
CITY           SKY/WX    TMP DP  RH WIND       PRES   REMARKS
WORCESTER      FOG       37  35  92 E16G24    30.12F VSB 1/2 WCI  28  
FITCHBURG      CLOUDY    38  33  82 E8        30.17F HAZE             
ORANGE         CLOUDY    39  33  79 E7        30.15F                  
SPRINGFIELD    CLOUDY    39  36  87 E10       30.10F                  
WESTFIELD      CLOUDY    40  33  76 VRB6      30.11F                  
NORTH ADAMS    CLOUDY    37  30  75 E16G28    30.07F WCI  28          
PITTSFIELD     CLOUDY    37  31  78 E10G22    30.01F WCI  30          
$$
 
RIZALL-251800-
RHODE ISLAND
  
CITY           SKY/WX    TMP DP  RH WIND       PRES   REMARKS
PROVIDENCE     CLOUDY    47  40  76 NE10      30.13F                  
NEWPORT        CLOUDY    46  39  76 E15G22    30.11F                  
BLOCK ISLAND   CLOUDY    43  40  89 E15G22    30.10F                  
SMITHFIELD     CLOUDY    41  39  93 E12       30.13F                  
WESTERLY       CLOUDY    48  38  68 E21G28    30.10F                  
$$
 
CTZALL-251800-
CONNECTICUT
  
CITY           SKY/WX    TMP DP  RH WIND       PRES   REMARKS
BRADLEY INTL   LGT RAIN  40  34  79 N8        30.09F                  
HARTFORD       CLOUDY    42  36  79 NE6       30.08F                  
BRIDGEPORT     LGT RAIN  42  40  92 E24G32    30.01F FOG              
DANBURY        RAIN      39  37  92 E13G22    29.99F FOG     WCI  31  
GROTON         CLOUDY    47  40  76 E16G25    30.07F                  
NEW HAVEN      CLOUDY    44  42  93 NE12      30.03F FOG              
CHESTER        NOT AVBL                                               
MERIDEN        LGT RAIN  41  38  89 VRB6      30.06F FOG              
WILLIMANTIC    CLOUDY    43  38  82 E9G22     30.10F                  
OXFORD         LGT RAIN  37  36  93 E13       30.01F FOG     WCI  29  
$$

MEZ002-015-021-024-NHZ003-005-008-011-012-014-VTZ005-008-251800-
NORTHERN NEW ENGLAND
  
CITY           SKY/WX    TMP DP  RH WIND       PRES   REMARKS
PORTLAND ME    CLOUDY    39  31  72 E10       30.28F                  
BANGOR ME      CLOUDY    36  30  79 SE8       30.33F WCI  30          
CONCORD NH     CLOUDY    37  30  75 E13       30.23F WCI  29          
MANCHESTER NH  CLOUDY    38  32  79 E9        30.20F WCI  31          
NASHUA NH      CLOUDY    38  36  92 E7        30.22F                  
PORTSMOUTH NH  CLOUDY    38  33  79 NE7       30.23                   
JAFFREY NH     CLOUDY    35  32  88 VRB3      30.15F FOG              
KEENE NH       CLOUDY    38  33  82 NE8       30.16F                  
BURLINGTON VT  PTSUNNY   39  26  59 S9        30.10F                  
MT. WASHINGTON PTSUNNY   27  -2  28 SE45G55     N/A  WCI   7          
$$

NYZ052-076-251800-
EASTERN NEW YORK
  
CITY           SKY/WX    TMP DP  RH WIND       PRES   REMARKS
ALBANY         CLOUDY    36  26  67 N6        30.02F WCI  31          
NEW YORK CITY  LGT RAIN  41  39  93 NE20      29.90F FOG     WCI  32  
$$
 
ANZALL-251800-
MARINE OBSERVATIONS
  
STATION/POSITION TIME  TEMP    WIND        PRES    VSBY  WAVE
                       AIR SEA DIR/SP/G                  HT/PER
                 (UTC) (F)     (DEG/KT/KT) (MB)    (MI)  (FT/S)
BOSTON BUOY      1650   43 43   80/ 14/ 16 1021.9F         4/11
BUZZARDS BAY     1600   43      70/ 22/ 26 1021.6F
NANTUCKET SOUND  1640                        N/A           3/ 5
MASS BAY-STELLWA 1604   42 41  120/ 16/ 19 1021.9F  1 7/8  5/ 5
ISLE OF SHOALS   1700   41      90/ 17/ 19 1023.1F
S OF BLOCK IS    1700      45                N/A           7/ 6
$$

......................KEY.........................
  SKY/WX - SKY CONDITION/PRESENT WEATHER
  TMP    - TEMPERATURE IN FAHRENHEIT
  DWPT   - DEWPOINT IN FAHRENHEIT
  RH     - RELATIVE HUMIDITY IN PERCENT
  WIND   - DIRECTION AND SPEED IN MPH
  PRES   - MEAN SEA LEVEL PRESSURE IN INCHES OF HG
  WCI    - WIND CHILL INDEX
  VSB    - VISIBILITY IN MILES
  HX     - HEAT INDEX
  TC     - TEMPERATURE IN CELSIUS
  VRB    - VARIABLE WIND DIRECTION
  N/A    - NOT AVAILABLE
  
      

Other recent Regional Weather Roundups

Tue Jan 28, 5:10am

Tue Jan 28, 5:00am

Tue Jan 28, 4:10am

Tue Jan 28, 4:00am

Tue Jan 28, 3:10am

Tue Jan 28, 3:01am

Tue Jan 28, 2:10am

Tue Jan 28, 2:00am

Tue Jan 28, 1:10am

Tue Jan 28, 1:00am

Tue Jan 28, 12:10am

Tue Jan 28, 12:01am

Mon Jan 27, 11:10pm

Mon Jan 27, 11:00pm

Mon Jan 27, 10:10pm

Mon Jan 27, 10:00pm

Mon Jan 27, 9:10pm

Mon Jan 27, 9:00pm

Mon Jan 27, 8:10pm

Mon Jan 27, 8:01pm

Mon Jan 27, 7:10pm

Mon Jan 27, 7:00pm

Mon Jan 27, 6:10pm

Mon Jan 27, 6:00pm

Mon Jan 27, 5:10pm

Mon Jan 27, 5:00pm

Mon Jan 27, 4:10pm

Mon Jan 27, 4:00pm

Mon Jan 27, 3:10pm

Mon Jan 27, 3:00pm

Mon Jan 27, 2:10pm

Mon Jan 27, 2:00pm

Mon Jan 27, 1:10pm

Mon Jan 27, 1:00pm

Mon Jan 27, 12:10pm

Mon Jan 27, 12:00pm

Mon Jan 27, 11:10am

Mon Jan 27, 11:01am

Mon Jan 27, 10:10am

Mon Jan 27, 10:00am

Mon Jan 27, 9:10am

Mon Jan 27, 9:00am

Mon Jan 27, 8:10am

Mon Jan 27, 8:00am

Mon Jan 27, 7:10am

Mon Jan 27, 7:00am

Mon Jan 27, 6:10am

Mon Jan 27, 6:00am

Mon Jan 27, 5:10am

Mon Jan 27, 5:00am

Mon Jan 27, 4:10am

Mon Jan 27, 4:01am

Mon Jan 27, 3:10am

Mon Jan 27, 3:00am

Mon Jan 27, 2:10am

Mon Jan 27, 2:00am

Mon Jan 27, 1:10am

Mon Jan 27, 1:00am

Mon Jan 27, 12:10am

Mon Jan 27, 12:00am

Sun Jan 26, 11:10pm

Sun Jan 26, 11:00pm

Sun Jan 26, 10:10pm

Sun Jan 26, 10:00pm

Sun Jan 26, 9:10pm

Sun Jan 26, 9:01pm

Sun Jan 26, 8:10pm

Sun Jan 26, 8:00pm

Sun Jan 26, 7:10pm

Sun Jan 26, 7:00pm

Sun Jan 26, 6:10pm

Sun Jan 26, 6:01pm

Sun Jan 26, 5:10pm

Sun Jan 26, 5:01pm

Sun Jan 26, 4:10pm

Sun Jan 26, 4:00pm

Sun Jan 26, 3:10pm

Sun Jan 26, 3:01pm

Sun Jan 26, 2:10pm

Sun Jan 26, 2:01pm

Sun Jan 26, 1:10pm

Sun Jan 26, 1:00pm

Sun Jan 26, 12:10pm

Sun Jan 26, 12:00pm

Sun Jan 26, 11:10am

Sun Jan 26, 11:01am

Sun Jan 26, 10:10am

Sun Jan 26, 10:01am

Sun Jan 26, 9:10am

Sun Jan 26, 9:00am

Sun Jan 26, 8:10am

Sun Jan 26, 8:00am

Sun Jan 26, 7:10am

Sun Jan 26, 7:00am

Sun Jan 26, 6:10am

Sun Jan 26, 6:00am

Sun Jan 26, 5:10am

Sun Jan 26, 5:00am

Sun Jan 26, 4:10am

Sun Jan 26, 4:01am

Sun Jan 26, 3:10am

Sun Jan 26, 3:01am

Sun Jan 26, 2:10am

Sun Jan 26, 2:00am

Sun Jan 26, 1:10am

Sun Jan 26, 1:00am

Sun Jan 26, 12:10am

Sun Jan 26, 12:00am

Sat Jan 25, 11:10pm

Sat Jan 25, 11:00pm

Sat Jan 25, 10:10pm

Sat Jan 25, 10:01pm

Sat Jan 25, 9:10pm

Sat Jan 25, 9:01pm

Sat Jan 25, 8:10pm

Sat Jan 25, 8:01pm

Sat Jan 25, 7:10pm

Sat Jan 25, 7:01pm

Sat Jan 25, 6:10pm

Sat Jan 25, 6:01pm

Sat Jan 25, 5:10pm

Sat Jan 25, 5:01pm

Sat Jan 25, 4:10pm

Sat Jan 25, 4:00pm

Sat Jan 25, 3:10pm

Sat Jan 25, 3:01pm

Sat Jan 25, 2:10pm

Sat Jan 25, 2:00pm

Sat Jan 25, 1:10pm

Sat Jan 25, 1:00pm

Sat Jan 25, 12:00pm

Sat Jan 25, 11:10am

Sat Jan 25, 11:00am

Sat Jan 25, 10:10am

Sat Jan 25, 10:00am

Sat Jan 25, 9:10am

Sat Jan 25, 9:00am

Sat Jan 25, 8:10am

Sat Jan 25, 8:01am

Sat Jan 25, 7:10am

Sat Jan 25, 7:00am

Sat Jan 25, 6:10am

Sat Jan 25, 6:00am

Meta data:

ID: cb8044e4-4065-44c2-9638-6f6aa23449fe
Link: https://api.weather.gov/products/cb8044e4-4065-44c2-9638-6f6aa23449fe